Orbital Elements at Epoch 2459200.5 (2020-Dec-17.0) TDB
Reference: JPL 10 (heliocentric ecliptic J2000)
Element | Value | Uncertainty (1-sigma) | Units |
e | .1374801927994783 | 4.3605e-08 | |
a | 2.437570087520405 | 1.4451e-08 | au |
q | 2.102452481925858 | 1.0834e-07 | au |
i | 2.599032671020149 | 4.8131e-06 | deg |
node | 110.5923957785664 | 0.00013786 | deg |
peri | 5.831924436334806 | 0.00014067 | deg |
M | 269.6663739429689 | 3.1805e-05 | deg |
tp | 2459549.303663201328 (2021-Nov-30.80366320) | 0.00012477 | TDB |
period | 1390.061754780011 3.81 | 1.2361e-05 3.384e-08 | d yr |
n | .2589812997602924 | 2.303e-09 | deg/d |
Q | 2.772687693114951 | 1.6437e-08 | au |
|
| | Orbit Determination Parameters
Additional Information
|